Dades meteomassalio
Diari Summary for Maig 27, 2017 Units:  Metric    English   Both
« Previous Day
Next Day »
Diari Semanal Mensual Anual Personalitzat
  Maxima: Minima: Mijana:
Temperatura: 29.5 °C 14.5 °C 22.7 °C
Rosada: 15.8 °C 11.9 °C 14.3 °C
Humitat: 86 % 40 % 62 %
Velocitat del vent: 40.7 km/h 0.0 km/h 9.7 km/h
Racha vent: 40.7 km/h - -
Vent:- - ESE
Pressio: 1016.8 hPa 1012.8 hPa -
Pluja: 0.0 mm    
Historical Graphs
 
 
Tabular Data for Maig 27, 2017
Time Temperature Dew Point Pressure Wind Wind Speed Wind Gust Humidity Rainfall Rate (Hourly) solar Conditions
00:02 20.2 °C 14.8 °C 1013.1 hPa Calm     71 % 0.0 mm 0.0 W/m2 CLR
00:07 20.2 °C 14.8 °C 1012.8 hPa Calm     71 % 0.0 mm 0.0 W/m2 CLR
00:12 20.2 °C 15.0 °C 1012.8 hPa Calm     72 % 0.0 mm 0.0 W/m2 CLR
00:17 20.2 °C 14.7 °C 1012.8 hPa Calm     71 % 0.0 mm 0.0 W/m2 CLR
00:22 20.1 °C 14.7 °C 1013.1 hPa Calm     71 % 0.0 mm 0.0 W/m2 CLR
00:27 20.1 °C 14.9 °C 1013.1 hPa Calm     72 % 0.0 mm 0.0 W/m2 CLR
00:32 20.0 °C 15.0 °C 1013.1 hPa Calm     73 % 0.0 mm 0.0 W/m2 CLR
00:42 19.8 °C 14.8 °C 1013.1 hPa Calm     73 % 0.0 mm 0.0 W/m2 CLR
00:47 19.7 °C 14.9 °C 1013.1 hPa Calm     74 % 0.0 mm 0.0 W/m2 CLR
00:52 19.6 °C 14.8 °C 1013.1 hPa Calm     74 % 0.0 mm 0.0 W/m2 CLR
00:57 19.4 °C 14.6 °C 1013.1 hPa Calm     74 % 0.0 mm 0.0 W/m2 CLR
01:02 19.1 °C 14.6 °C 1013.1 hPa Calm     75 % 0.0 mm 0.0 W/m2 CLR
01:07 18.9 °C 14.8 °C 1013.4 hPa Calm     77 % 0.0 mm 0.0 W/m2 CLR
01:12 18.9 °C 14.8 °C 1013.4 hPa Calm     77 % 0.0 mm 0.0 W/m2 CLR
01:17 18.9 °C 14.8 °C 1013.1 hPa Calm     77 % 0.0 mm 0.0 W/m2 CLR
01:22 19.0 °C 14.9 °C 1013.4 hPa Calm     77 % 0.0 mm 0.0 W/m2 CLR
01:27 19.1 °C 15.0 °C 1013.4 hPa Calm     77 % 0.0 mm 0.0 W/m2 CLR
01:32 19.1 °C 14.8 °C 1013.4 hPa Calm     76 % 0.0 mm 0.0 W/m2 CLR
01:37 19.1 °C 14.8 °C 1013.4 hPa Calm     76 % 0.0 mm 0.0 W/m2 CLR
01:42 19.1 °C 14.8 °C 1013.4 hPa Calm     76 % 0.0 mm 0.0 W/m2 CLR
01:47 19.1 °C 14.7 °C 1013.4 hPa Calm     76 % 0.0 mm 0.0 W/m2 CLR
01:52 19.0 °C 14.7 °C 1013.4 hPa Calm     76 % 0.0 mm 0.0 W/m2 CLR
01:57 18.9 °C 14.6 °C 1013.4 hPa Calm     76 % 0.0 mm 0.0 W/m2 CLR
02:02 18.9 °C 14.6 °C 1013.4 hPa Calm     76 % 0.0 mm 0.0 W/m2 CLR
02:07 18.8 °C 14.7 °C 1013.4 hPa Calm     77 % 0.0 mm 0.0 W/m2 CLR
02:08 18.8 °C 14.7 °C 1013.8 hPa Calm     77 % 0.0 mm 0.0 W/m2 CLR
02:13 18.7 °C 14.6 °C 1013.8 hPa Calm     77 % 0.0 mm 0.0 W/m2 CLR
02:18 18.6 °C 14.7 °C 1013.8 hPa Calm     78 % 0.0 mm 0.0 W/m2 CLR
02:23 18.5 °C 14.4 °C 1013.8 hPa Calm     77 % 0.0 mm 0.0 W/m2 CLR
02:28 18.3 °C 14.4 °C 1013.8 hPa Calm     78 % 0.0 mm 0.0 W/m2 CLR
02:33 18.4 °C 14.7 °C 1014.1 hPa Calm     79 % 0.0 mm 0.0 W/m2 CLR
02:38 18.4 °C 14.7 °C 1013.8 hPa Calm     79 % 0.0 mm 0.0 W/m2 CLR
02:43 18.4 °C 14.7 °C 1014.1 hPa Calm     79 % 0.0 mm 0.0 W/m2 CLR
02:48 18.3 °C 14.6 °C 1014.1 hPa Calm     79 % 0.0 mm 0.0 W/m2 CLR
02:53 18.3 °C 14.8 °C 1013.8 hPa Calm     80 % 0.0 mm 0.0 W/m2 CLR
02:58 18.3 °C 14.8 °C 1014.1 hPa Calm     80 % 0.0 mm 0.0 W/m2 CLR
03:03 18.2 °C 14.7 °C 1014.1 hPa Calm     80 % 0.0 mm 0.0 W/m2 CLR
03:08 18.2 °C 14.7 °C 1014.1 hPa Calm     80 % 0.0 mm 0.0 W/m2 CLR
03:13 17.8 °C 14.2 °C 1014.4 hPa Calm     79 % 0.0 mm 0.0 W/m2 CLR
03:18 17.7 °C 14.4 °C 1014.4 hPa Calm     81 % 0.0 mm 0.0 W/m2 CLR
03:23 17.7 °C 14.6 °C 1014.4 hPa Calm     82 % 0.0 mm 0.0 W/m2 CLR
03:28 17.7 °C 14.6 °C 1014.4 hPa Calm     82 % 0.0 mm 0.0 W/m2 CLR
03:33 17.7 °C 14.6 °C 1014.4 hPa Calm     82 % 0.0 mm 0.0 W/m2 CLR
03:38 17.7 °C 14.4 °C 1014.4 hPa Calm     81 % 0.0 mm 0.0 W/m2 CLR
03:43 17.6 °C 14.3 °C 1014.4 hPa Calm     81 % 0.0 mm 0.0 W/m2 CLR
03:48 17.4 °C 14.2 °C 1014.4 hPa Calm     81 % 0.0 mm 0.0 W/m2 CLR
03:53 17.2 °C 13.9 °C 1014.8 hPa Calm     81 % 0.0 mm 0.0 W/m2 CLR
04:03 17.0 °C 14.1 °C 1014.8 hPa Calm     83 % 0.0 mm 0.0 W/m2 CLR
04:08 16.9 °C 14.0 °C 1014.8 hPa Calm     83 % 0.0 mm 0.0 W/m2 CLR
04:13 16.8 °C 13.7 °C 1014.8 hPa Calm     82 % 0.0 mm 0.0 W/m2 CLR
04:18 16.7 °C 13.8 °C 1014.8 hPa Calm     83 % 0.0 mm 0.0 W/m2 CLR
04:23 16.6 °C 13.7 °C 1014.8 hPa Calm     83 % 0.0 mm 0.0 W/m2 CLR
04:28 16.5 °C 13.6 °C 1014.8 hPa Calm     83 % 0.0 mm 0.0 W/m2 CLR
04:33 16.4 °C 13.5 °C 1014.8 hPa Calm     83 % 0.0 mm 0.0 W/m2 CLR
04:38 16.3 °C 13.4 °C 1014.8 hPa Calm     83 % 0.0 mm 0.0 W/m2 CLR
04:43 16.3 °C 13.6 °C 1014.8 hPa Calm     84 % 0.0 mm 0.0 W/m2 CLR
04:48 16.3 °C 13.6 °C 1014.8 hPa Calm     84 % 0.0 mm 0.0 W/m2 CLR
04:53 16.2 °C 13.3 °C 1014.8 hPa Calm     83 % 0.0 mm 0.0 W/m2 CLR
04:58 16.1 °C 13.2 °C 1014.8 hPa Calm     83 % 0.0 mm 0.0 W/m2 CLR
05:03 16.1 °C 13.2 °C 1014.8 hPa Calm     83 % 0.0 mm 0.0 W/m2 CLR
05:08 15.9 °C 13.2 °C 1014.8 hPa Calm     84 % 0.0 mm 0.0 W/m2 CLR
05:13 15.9 °C 13.2 °C 1014.8 hPa Calm     84 % 0.0 mm 0.0 W/m2 CLR
05:18 15.9 °C 13.2 °C 1014.8 hPa Calm     84 % 0.0 mm 0.0 W/m2 CLR
05:23 15.8 °C 12.9 °C 1015.1 hPa Calm     83 % 0.0 mm 0.0 W/m2 CLR
05:28 15.7 °C 12.8 °C 1015.1 hPa Calm     83 % 0.0 mm 0.0 W/m2 CLR
05:33 15.7 °C 12.8 °C 1015.1 hPa Calm     83 % 0.0 mm 0.0 W/m2 CLR
05:38 15.6 °C 12.7 °C 1015.1 hPa Calm     83 % 0.0 mm 0.0 W/m2 CLR
05:43 15.6 °C 12.9 °C 1015.1 hPa Calm     84 % 0.0 mm 0.0 W/m2 CLR
05:48 15.4 °C 12.6 °C 1015.1 hPa Calm     83 % 0.0 mm 0.0 W/m2 CLR
05:53 15.3 °C 12.4 °C 1015.1 hPa Calm     83 % 0.0 mm 0.0 W/m2 CLR
05:58 15.2 °C 12.6 °C 1015.1 hPa Calm     84 % 0.0 mm 0.0 W/m2 CLR
06:03 15.2 °C 12.7 °C 1015.1 hPa Calm     85 % 0.0 mm 0.0 W/m2 CLR
06:08 15.1 °C 12.4 °C 1015.1 hPa Calm     84 % 0.0 mm 0.0 W/m2 CLR
06:13 15.0 °C 12.3 °C 1015.1 hPa Calm     84 % 0.0 mm 0.0 W/m2 CLR
06:18 14.8 °C 12.2 °C 1015.1 hPa Calm     84 % 0.0 mm 0.0 W/m2 CLR
06:23 14.7 °C 12.1 °C 1015.1 hPa Calm     84 % 0.0 mm 0.0 W/m2 OVC
06:28 14.7 °C 12.0 °C 1015.5 hPa Calm     84 % 0.0 mm 0.0 W/m2 OVC
06:33 14.7 °C 12.2 °C 1015.5 hPa Calm     85 % 0.0 mm 0.0 W/m2 OVC
06:38 14.7 °C 12.2 °C 1015.5 hPa Calm     85 % 0.0 mm 5.0 W/m2 OVC
06:43 14.7 °C 12.0 °C 1015.5 hPa Calm     84 % 0.0 mm 9.0 W/m2 BKN
06:48 14.6 °C 11.9 °C 1015.5 hPa Calm     84 % 0.0 mm 11.0 W/m2 BKN
06:53 14.5 °C 12.0 °C 1015.5 hPa Calm     85 % 0.0 mm 14.0 W/m2 BKN
06:58 14.5 °C 12.0 °C 1015.8 hPa Calm     85 % 0.0 mm 19.0 W/m2 BKN
07:04 14.5 °C 12.0 °C 1015.8 hPa Calm     85 % 0.0 mm 23.0 W/m2 BKN
07:09 14.6 °C 12.2 °C 1015.8 hPa Calm     86 % 0.0 mm 26.0 W/m2 BKN
07:14 14.5 °C 12.0 °C 1015.8 hPa Calm     85 % 0.0 mm 33.0 W/m2 BKN
07:19 14.5 °C 12.2 °C 1015.8 hPa Calm     86 % 0.0 mm 40.0 W/m2 BKN
07:24 14.6 °C 12.1 °C 1015.8 hPa Calm     85 % 0.0 mm 53.0 W/m2 SCT
07:29 14.7 °C 12.2 °C 1015.8 hPa Calm     85 % 0.0 mm 60.0 W/m2 SCT
07:34 14.8 °C 12.3 °C 1015.8 hPa Calm     85 % 0.0 mm 58.0 W/m2 SCT
07:35 14.8 °C 12.3 °C 1015.8 hPa Calm     85 % 0.0 mm 65.0 W/m2 SCT
07:40 15.1 °C 12.6 °C 1015.8 hPa Calm     85 % 0.0 mm 97.0 W/m2 FEW
07:45 15.2 °C 12.6 °C 1015.8 hPa Calm     84 % 0.0 mm 113.0 W/m2 CLR
07:50 15.4 °C 12.8 °C 1015.8 hPa Calm     84 % 0.0 mm 127.0 W/m2 CLR
07:55 15.8 °C 12.9 °C 1015.8 hPa Calm     83 % 0.0 mm 141.0 W/m2 CLR
08:00 16.2 °C 13.2 °C 1015.8 hPa Calm     82 % 0.0 mm 156.0 W/m2 CLR
08:05 16.5 °C 13.2 °C 1015.8 hPa Calm     81 % 0.0 mm 174.0 W/m2 CLR
08:10 16.9 °C 13.4 °C 1015.8 hPa Calm     80 % 0.0 mm 192.0 W/m2 CLR
08:15 17.3 °C 13.6 °C 1015.8 hPa Calm     79 % 0.0 mm 207.0 W/m2 CLR
08:20 17.7 °C 13.8 °C 1015.8 hPa Calm     78 % 0.0 mm 223.0 W/m2 CLR
08:25 18.1 °C 14.2 °C 1015.8 hPa Calm     78 % 0.0 mm 243.0 W/m2 CLR
08:26 18.1 °C 14.2 °C 1015.8 hPa Calm     78 % 0.0 mm 243.0 W/m2 CLR
08:31 18.6 °C 14.7 °C 1016.1 hPa Calm     78 % 0.0 mm 260.0 W/m2 CLR
08:36 19.0 °C 14.9 °C 1016.1 hPa Calm     77 % 0.0 mm 278.0 W/m2 CLR
08:41 19.4 °C 14.8 °C 1015.8 hPa Calm     75 % 0.0 mm 297.0 W/m2 CLR
08:46 19.6 °C 15.0 °C 1015.8 hPa Calm     75 % 0.0 mm 313.0 W/m2 CLR
08:51 19.7 °C 14.9 °C 1015.8 hPa Calm     74 % 0.0 mm 329.0 W/m2 CLR
08:56 20.0 °C 15.2 °C 1015.8 hPa Calm     74 % 0.0 mm 345.0 W/m2 CLR
08:58 20.1 °C 15.1 °C 1015.8 hPa Calm     73 % 0.0 mm 348.0 W/m2 CLR
09:03 20.3 °C 15.1 °C 1015.8 hPa Calm     72 % 0.0 mm 362.0 W/m2 CLR
09:08 20.6 °C 15.4 °C 1015.8 hPa Calm     72 % 0.0 mm 376.0 W/m2 CLR
09:13 20.9 °C 15.5 °C 1015.8 hPa Calm     71 % 0.0 mm 373.0 W/m2 CLR
09:18 21.2 °C 15.6 °C 1015.8 hPa Calm     70 % 0.0 mm 353.0 W/m2 CLR
09:23 21.5 °C 15.6 °C 1015.8 hPa Calm     69 % 0.0 mm 420.0 W/m2 CLR
09:28 21.8 °C 15.6 °C 1015.8 hPa Calm     68 % 0.0 mm 439.0 W/m2 CLR
09:33 22.1 °C 15.4 °C 1015.8 hPa ENE 5.6 km/h 5.6 km/h 66 % 0.0 mm 455.0 W/m2 CLR
09:38 22.3 °C 15.4 °C 1015.8 hPa ENE 9.3 km/h 9.3 km/h 65 % 0.0 mm 469.0 W/m2 CLR
09:43 22.6 °C 15.4 °C 1015.8 hPa ESE 9.3 km/h 9.3 km/h 64 % 0.0 mm 485.0 W/m2 CLR
09:48 22.6 °C 15.2 °C 1015.8 hPa East 7.4 km/h 7.4 km/h 63 % 0.0 mm 503.0 W/m2 CLR
09:53 22.6 °C 15.4 °C 1015.8 hPa ENE 9.3 km/h 9.3 km/h 64 % 0.0 mm 494.0 W/m2 CLR
09:58 22.8 °C 15.6 °C 1015.8 hPa SE 9.3 km/h 9.3 km/h 64 % 0.0 mm 529.0 W/m2 CLR
10:03 22.8 °C 15.4 °C 1015.8 hPa East 13.0 km/h 13.0 km/h 63 % 0.0 mm 540.0 W/m2 CLR
10:08 22.9 °C 15.3 °C 1015.8 hPa ENE 9.3 km/h 9.3 km/h 62 % 0.0 mm 548.0 W/m2 CLR
10:13 23.2 °C 15.2 °C 1015.8 hPa East 7.4 km/h 7.4 km/h 61 % 0.0 mm 564.0 W/m2 CLR
10:18 23.3 °C 15.1 °C 1015.8 hPa ESE 9.3 km/h 9.3 km/h 60 % 0.0 mm 575.0 W/m2 CLR
10:23 23.5 °C 15.3 °C 1015.8 hPa ESE 13.0 km/h 13.0 km/h 60 % 0.0 mm 599.0 W/m2 CLR
10:28 23.6 °C 14.9 °C 1015.8 hPa ESE 11.1 km/h 11.1 km/h 58 % 0.0 mm 615.0 W/m2 CLR
10:33 23.7 °C 14.9 °C 1015.8 hPa ESE 11.1 km/h 11.1 km/h 58 % 0.0 mm 628.0 W/m2 CLR
10:38 23.8 °C 14.5 °C 1015.8 hPa East 5.6 km/h 5.6 km/h 56 % 0.0 mm 640.0 W/m2 CLR
10:43 24.1 °C 15.0 °C 1015.8 hPa ESE 7.4 km/h 7.4 km/h 57 % 0.0 mm 650.0 W/m2 CLR
10:48 24.3 °C 15.0 °C 1015.8 hPa ESE 9.3 km/h 9.3 km/h 56 % 0.0 mm 664.0 W/m2 CLR
10:53 24.7 °C 15.1 °C 1015.8 hPa East 12.9 km/h 12.9 km/h 55 % 0.0 mm 680.0 W/m2 CLR
10:58 25.1 °C 14.8 °C 1015.8 hPa NE 9.7 km/h 9.7 km/h 53 % 0.0 mm 691.0 W/m2 CLR
11:03 25.5 °C 14.9 °C 1015.5 hPa ENE 13.0 km/h 13.0 km/h 52 % 0.0 mm 707.0 W/m2 CLR
11:08 25.7 °C 14.4 °C 1015.5 hPa NE 9.3 km/h 9.3 km/h 50 % 0.0 mm 721.0 W/m2 CLR
11:13 25.9 °C 14.7 °C 1015.5 hPa NNE 5.6 km/h 5.6 km/h 50 % 0.0 mm 737.0 W/m2 CLR
11:18 26.1 °C 15.1 °C 1015.5 hPa ESE 9.7 km/h 9.7 km/h 51 % 0.0 mm 747.0 W/m2 CLR
11:23 26.1 °C 14.9 °C 1015.5 hPa East 11.1 km/h 11.1 km/h 50 % 0.0 mm 758.0 W/m2 CLR
11:28 26.2 °C 15.0 °C 1015.5 hPa ENE 13.0 km/h 13.0 km/h 50 % 0.0 mm 758.0 W/m2 CLR
11:33 26.1 °C 14.5 °C 1015.5 hPa East 11.1 km/h 11.1 km/h 49 % 0.0 mm 784.0 W/m2 CLR
11:38 26.1 °C 14.9 °C 1015.8 hPa East 1.6 km/h   50 % 0.0 mm 795.0 W/m2 CLR
11:43 26.3 °C 14.7 °C 1015.5 hPa NE 9.7 km/h 9.7 km/h 49 % 0.0 mm 775.0 W/m2 CLR
11:48 26.5 °C 14.6 °C 1015.8 hPa ENE 16.7 km/h 16.7 km/h 48 % 0.0 mm 810.0 W/m2 CLR
11:53 26.7 °C 14.4 °C 1015.5 hPa NE 5.6 km/h 5.6 km/h 47 % 0.0 mm 812.0 W/m2 CLR
11:58 26.9 °C 14.3 °C 1015.5 hPa East 8.0 km/h 8.0 km/h 46 % 0.0 mm 817.0 W/m2 CLR
12:03 27.2 °C 14.9 °C 1015.5 hPa ENE 12.9 km/h 12.9 km/h 47 % 0.0 mm 837.0 W/m2 CLR
12:08 26.9 °C 14.3 °C 1015.5 hPa Calm     46 % 0.0 mm 826.0 W/m2 CLR
12:13 27.1 °C 14.2 °C 1015.5 hPa East 13.0 km/h 13.0 km/h 45 % 0.0 mm 800.0 W/m2 CLR
12:18 27.4 °C 14.4 °C 1015.5 hPa ENE 9.3 km/h 9.3 km/h 45 % 0.0 mm 805.0 W/m2 CLR
12:23 27.3 °C 15.1 °C 1015.5 hPa ESE 16.7 km/h 16.7 km/h 47 % 0.0 mm 846.0 W/m2 CLR
12:28 27.2 °C 15.2 °C 1015.5 hPa ENE 13.0 km/h 13.0 km/h 48 % 0.0 mm 865.0 W/m2 CLR
12:33 27.1 °C 14.8 °C 1015.5 hPa SE 18.5 km/h 18.5 km/h 47 % 0.0 mm 888.0 W/m2 CLR
12:38 27.1 °C 14.4 °C 1015.5 hPa ESE 13.0 km/h 13.0 km/h 46 % 0.0 mm 891.0 W/m2 CLR
12:43 27.1 °C 14.5 °C 1015.5 hPa SE 13.0 km/h 13.0 km/h 46 % 0.0 mm 884.0 W/m2 CLR
12:48 27.3 °C 14.7 °C 1015.5 hPa SE 13.0 km/h 13.0 km/h 46 % 0.0 mm 837.0 W/m2 CLR
12:53 27.4 °C 14.8 °C 1015.5 hPa ESE 14.5 km/h 14.5 km/h 46 % 0.0 mm 879.0 W/m2 CLR
12:58 27.4 °C 15.1 °C 1015.5 hPa ESE 13.0 km/h 13.0 km/h 47 % 0.0 mm 893.0 W/m2 CLR
13:03 27.7 °C 14.7 °C 1015.5 hPa ESE 16.7 km/h 16.7 km/h 45 % 0.0 mm 879.0 W/m2 CLR
13:08 27.6 °C 14.9 °C 1015.5 hPa East 14.8 km/h 14.8 km/h 46 % 0.0 mm 902.0 W/m2 CLR
13:13 27.6 °C 14.9 °C 1015.1 hPa East 16.7 km/h 16.7 km/h 46 % 0.0 mm 898.0 W/m2 CLR
13:18 27.6 °C 14.9 °C 1015.1 hPa East 18.5 km/h 18.5 km/h 46 % 0.0 mm 909.0 W/m2 CLR
13:23 27.7 °C 14.7 °C 1015.1 hPa East 18.5 km/h 18.5 km/h 45 % 0.0 mm 912.0 W/m2 CLR
13:28 27.8 °C 15.1 °C 1015.1 hPa ESE 14.8 km/h 14.8 km/h 46 % 0.0 mm 905.0 W/m2 CLR
13:33 27.5 °C 14.8 °C 1015.1 hPa ESE 18.5 km/h 18.5 km/h 46 % 0.0 mm 911.0 W/m2 CLR
13:38 27.4 °C 15.1 °C 1015.1 hPa ESE 20.4 km/h 20.4 km/h 47 % 0.0 mm 911.0 W/m2 CLR
13:43 27.6 °C 14.9 °C 1015.1 hPa East 20.4 km/h 20.4 km/h 46 % 0.0 mm 918.0 W/m2 CLR
13:48 27.5 °C 14.8 °C 1015.1 hPa SE 24.1 km/h 24.1 km/h 46 % 0.0 mm 919.0 W/m2 CLR
13:54 27.6 °C 14.9 °C 1015.1 hPa ESE 27.8 km/h 27.8 km/h 46 % 0.0 mm 914.0 W/m2 CLR
13:59 27.7 °C 15.1 °C 1015.1 hPa ESE 18.5 km/h 18.5 km/h 46 % 0.0 mm 914.0 W/m2 CLR
14:04 27.8 °C 15.1 °C 1015.1 hPa ENE 25.9 km/h 25.9 km/h 46 % 0.0 mm 921.0 W/m2 CLR
14:09 27.4 °C 15.1 °C 1014.8 hPa East 22.2 km/h 22.2 km/h 47 % 0.0 mm 925.0 W/m2 CLR
14:14 27.5 °C 15.2 °C 1015.1 hPa East 20.4 km/h 20.4 km/h 47 % 0.0 mm 923.0 W/m2 CLR
14:19 27.9 °C 15.2 °C 1014.8 hPa East 22.5 km/h 22.5 km/h 46 % 0.0 mm 919.0 W/m2 CLR
14:24 27.9 °C 15.2 °C 1014.8 hPa East 16.7 km/h 16.7 km/h 46 % 0.0 mm 914.0 W/m2 CLR
14:29 28.2 °C 15.8 °C 1014.8 hPa ESE 19.3 km/h 19.3 km/h 47 % 0.0 mm 916.0 W/m2 CLR
14:34 28.6 °C 15.1 °C 1014.8 hPa ESE 25.9 km/h 25.9 km/h 44 % 0.0 mm 907.0 W/m2 CLR
14:35 28.6 °C 15.2 °C 1014.8 hPa ESE 20.9 km/h 20.9 km/h 44 % 0.0 mm 904.0 W/m2 CLR
14:40 28.5 °C 15.1 °C 1014.4 hPa East 22.2 km/h 22.2 km/h 44 % 0.0 mm 911.0 W/m2 CLR
14:45 28.6 °C 15.2 °C 1014.4 hPa East 20.4 km/h 20.4 km/h 44 % 0.0 mm 907.0 W/m2 CLR
14:50 28.7 °C 15.3 °C 1014.4 hPa East 20.4 km/h 20.4 km/h 44 % 0.0 mm 896.0 W/m2 CLR
14:55 28.7 °C 15.3 °C 1014.4 hPa East 20.4 km/h 20.4 km/h 44 % 0.0 mm 881.0 W/m2 CLR
15:00 28.6 °C 15.1 °C 1014.4 hPa East 22.2 km/h 22.2 km/h 44 % 0.0 mm 888.0 W/m2 CLR
15:05 28.8 °C 15.4 °C 1014.4 hPa ESE 25.9 km/h 25.9 km/h 44 % 0.0 mm 882.0 W/m2 CLR
15:10 29.4 °C 15.1 °C 1014.4 hPa ESE 22.5 km/h 22.5 km/h 42 % 0.0 mm 884.0 W/m2 CLR
15:15 29.3 °C 14.3 °C 1014.4 hPa ESE 35.2 km/h 35.2 km/h 40 % 0.0 mm 881.0 W/m2 CLR
15:20 29.3 °C 14.7 °C 1014.4 hPa SE 18.5 km/h 18.5 km/h 41 % 0.0 mm 872.0 W/m2 CLR
15:25 29.5 °C 14.5 °C 1014.4 hPa ESE 37.0 km/h 37.0 km/h 40 % 0.0 mm 858.0 W/m2 CLR
15:30 29.1 °C 14.5 °C 1014.4 hPa East 33.3 km/h 33.3 km/h 41 % 0.0 mm 863.0 W/m2 CLR
15:35 29.2 °C 15.0 °C 1014.4 hPa SSE 20.4 km/h 20.4 km/h 42 % 0.0 mm 847.0 W/m2 CLR
15:40 29.2 °C 14.6 °C 1014.4 hPa ESE 27.8 km/h 27.8 km/h 41 % 0.0 mm 823.0 W/m2 CLR
15:45 29.3 °C 14.7 °C 1014.4 hPa ESE 29.6 km/h 29.6 km/h 41 % 0.0 mm 816.0 W/m2 CLR
15:50 29.3 °C 14.7 °C 1014.4 hPa SE 33.3 km/h 33.3 km/h 41 % 0.0 mm 823.0 W/m2 CLR
15:55 29.1 °C 14.4 °C 1014.4 hPa ESE 27.8 km/h 27.8 km/h 41 % 0.0 mm 824.0 W/m2 CLR
16:00 29.2 °C 14.6 °C 1014.4 hPa SSE 31.5 km/h 31.5 km/h 41 % 0.0 mm 814.0 W/m2 CLR
16:05 29.4 °C 14.8 °C 1014.4 hPa ESE 24.1 km/h 24.1 km/h 41 % 0.0 mm 807.0 W/m2 CLR
16:10 29.2 °C 14.2 °C 1014.1 hPa ESE 31.5 km/h 31.5 km/h 40 % 0.0 mm 798.0 W/m2 CLR
16:15 29.2 °C 14.2 °C 1014.1 hPa ESE 32.2 km/h 32.2 km/h 40 % 0.0 mm 786.0 W/m2 CLR
16:20 29.0 °C 14.4 °C 1014.1 hPa ESE 40.7 km/h 40.7 km/h 41 % 0.0 mm 779.0 W/m2 CLR
16:25 29.2 °C 14.6 °C 1014.1 hPa ESE 22.2 km/h 22.2 km/h 41 % 0.0 mm 765.0 W/m2 CLR
16:30 29.1 °C 14.1 °C 1014.1 hPa ESE 31.5 km/h 31.5 km/h 40 % 0.0 mm 763.0 W/m2 CLR
16:35 28.9 °C 14.4 °C 1014.1 hPa ESE 31.5 km/h 31.5 km/h 41 % 0.0 mm 752.0 W/m2 CLR
16:40 29.1 °C 14.5 °C 1014.1 hPa East 33.3 km/h 33.3 km/h 41 % 0.0 mm 731.0 W/m2 CLR
16:45 28.8 °C 14.3 °C 1014.1 hPa ESE 31.5 km/h 31.5 km/h 41 % 0.0 mm 728.0 W/m2 CLR
16:50 29.1 °C 14.5 °C 1014.1 hPa ESE 27.8 km/h 27.8 km/h 41 % 0.0 mm 717.0 W/m2 CLR
16:55 29.3 °C 14.7 °C 1014.1 hPa ESE 20.9 km/h 20.9 km/h 41 % 0.0 mm 700.0 W/m2 CLR
17:00 29.3 °C 14.3 °C 1014.1 hPa ESE 31.5 km/h 31.5 km/h 40 % 0.0 mm 671.0 W/m2 CLR
17:05 28.8 °C 14.6 °C 1014.1 hPa SE 25.7 km/h 25.7 km/h 42 % 0.0 mm 628.0 W/m2 CLR
17:10 28.8 °C 14.6 °C 1014.1 hPa ESE 25.7 km/h 25.7 km/h 42 % 0.0 mm 631.0 W/m2 CLR
17:15 28.8 °C 14.6 °C 1014.1 hPa ESE 29.6 km/h 29.6 km/h 42 % 0.0 mm 640.0 W/m2 CLR
17:16 28.7 °C 14.6 °C 1014.1 hPa ESE 29.6 km/h 29.6 km/h 42 % 0.0 mm 640.0 W/m2 CLR
17:21 28.7 °C 14.6 °C 1014.1 hPa ESE 27.4 km/h 27.4 km/h 42 % 0.0 mm 633.0 W/m2 CLR
17:26 28.8 °C 14.6 °C 1014.1 hPa ESE 29.0 km/h 29.0 km/h 42 % 0.0 mm 631.0 W/m2 CLR
17:31 28.8 °C 14.6 °C 1014.1 hPa ESE 27.4 km/h 27.4 km/h 42 % 0.0 mm 612.0 W/m2 CLR
17:36 28.9 °C 15.1 °C 1014.1 hPa SE 18.5 km/h 18.5 km/h 43 % 0.0 mm 601.0 W/m2 CLR
17:41 28.7 °C 14.6 °C 1014.1 hPa SE 31.5 km/h 31.5 km/h 42 % 0.0 mm 582.0 W/m2 CLR
17:46 28.7 °C 14.5 °C 1014.1 hPa SE 29.6 km/h 29.6 km/h 42 % 0.0 mm 547.0 W/m2 CLR
17:49 28.6 °C 14.8 °C 1014.1 hPa SE 31.5 km/h 31.5 km/h 43 % 0.0 mm 545.0 W/m2 CLR
17:53 28.3 °C 14.6 °C 1014.1 hPa ESE 27.8 km/h 27.8 km/h 43 % 0.0 mm 541.0 W/m2 CLR
17:58 28.4 °C 14.6 °C 1014.1 hPa SE 31.5 km/h 31.5 km/h 43 % 0.0 mm 531.0 W/m2 CLR
18:03 28.6 °C 14.4 °C 1014.1 hPa SE 27.8 km/h 27.8 km/h 42 % 0.0 mm 512.0 W/m2 CLR
18:08 28.5 °C 14.7 °C 1013.8 hPa SE 27.8 km/h 27.8 km/h 43 % 0.0 mm 483.0 W/m2 CLR
18:13 28.6 °C 14.8 °C 1014.1 hPa SE 22.2 km/h 22.2 km/h 43 % 0.0 mm 450.0 W/m2 CLR
18:18 28.6 °C 14.4 °C 1013.8 hPa SE 25.9 km/h 25.9 km/h 42 % 0.0 mm 452.0 W/m2 CLR
18:23 28.4 °C 14.2 °C 1013.8 hPa SE 24.1 km/h 24.1 km/h 42 % 0.0 mm 454.0 W/m2 CLR
18:28 28.6 °C 14.1 °C 1013.8 hPa ESE 22.2 km/h 22.2 km/h 41 % 0.0 mm 425.0 W/m2 CLR
18:33 28.5 °C 13.9 °C 1013.8 hPa SSE 24.1 km/h 24.1 km/h 41 % 0.0 mm 417.0 W/m2 CLR
18:38 28.6 °C 14.1 °C 1013.8 hPa ESE 25.9 km/h 25.9 km/h 41 % 0.0 mm 353.0 W/m2 CLR
18:43 28.3 °C 13.8 °C 1013.8 hPa ESE 25.9 km/h 25.9 km/h 41 % 0.0 mm 373.0 W/m2 CLR
18:48 28.2 °C 14.1 °C 1013.8 hPa SE 20.4 km/h 20.4 km/h 42 % 0.0 mm 329.0 W/m2 CLR
18:53 28.2 °C 13.7 °C 1013.8 hPa SE 24.1 km/h 24.1 km/h 41 % 0.0 mm 345.0 W/m2 CLR
18:58 28.2 °C 13.7 °C 1013.8 hPa ESE 18.5 km/h 18.5 km/h 41 % 0.0 mm 294.0 W/m2 CLR
19:03 28.1 °C 14.0 °C 1013.8 hPa ESE 18.5 km/h 18.5 km/h 42 % 0.0 mm 295.0 W/m2 CLR
19:08 27.8 °C 13.7 °C 1013.8 hPa ESE 18.5 km/h 18.5 km/h 42 % 0.0 mm 229.0 W/m2 CLR
19:13 27.8 °C 13.7 °C 1014.1 hPa ESE 16.7 km/h 16.7 km/h 42 % 0.0 mm 172.0 W/m2 CLR
19:18 27.7 °C 13.2 °C 1014.1 hPa ESE 16.1 km/h 16.1 km/h 41 % 0.0 mm 214.0 W/m2 CLR
19:23 27.4 °C 13.4 °C 1014.1 hPa ESE 22.2 km/h 22.2 km/h 42 % 0.0 mm 211.0 W/m2 CLR
19:28 27.3 °C 13.3 °C 1014.1 hPa SE 18.5 km/h 18.5 km/h 42 % 0.0 mm 287.0 W/m2 CLR
19:33 27.4 °C 13.3 °C 1014.1 hPa SE 20.4 km/h 20.4 km/h 42 % 0.0 mm 239.0 W/m2 CLR
19:38 27.3 °C 13.3 °C 1014.1 hPa ESE 19.3 km/h 19.3 km/h 42 % 0.0 mm 269.0 W/m2 CLR
19:43 27.2 °C 13.2 °C 1014.1 hPa SE 18.5 km/h 18.5 km/h 42 % 0.0 mm 255.0 W/m2 CLR
19:48 27.3 °C 13.2 °C 1014.4 hPa SE 11.3 km/h 11.3 km/h 42 % 0.0 mm 176.0 W/m2 CLR
19:53 27.3 °C 13.2 °C 1014.4 hPa SE 18.5 km/h 18.5 km/h 42 % 0.0 mm 202.0 W/m2 CLR
19:58 27.2 °C 13.2 °C 1014.4 hPa SSE 12.9 km/h 12.9 km/h 42 % 0.0 mm 193.0 W/m2 CLR
20:03 27.2 °C 13.2 °C 1014.4 hPa SE 19.3 km/h 19.3 km/h 42 % 0.0 mm 151.0 W/m2 CLR
20:08 27.0 °C 13.7 °C 1014.4 hPa SE 14.5 km/h 14.5 km/h 44 % 0.0 mm 128.0 W/m2 CLR
20:13 26.8 °C 13.2 °C 1014.4 hPa SE 13.0 km/h 13.0 km/h 43 % 0.0 mm 84.0 W/m2 CLR
20:18 26.7 °C 13.1 °C 1014.4 hPa SSE 16.7 km/h 16.7 km/h 43 % 0.0 mm 56.0 W/m2 FEW
20:23 26.6 °C 12.6 °C 1014.8 hPa ESE 18.5 km/h 18.5 km/h 42 % 0.0 mm 46.0 W/m2 SCT
20:28 26.4 °C 12.8 °C 1014.8 hPa SE 13.0 km/h 13.0 km/h 43 % 0.0 mm 40.0 W/m2 BKN
20:33 26.3 °C 13.1 °C 1014.8 hPa SE 11.1 km/h 11.1 km/h 44 % 0.0 mm 33.0 W/m2 BKN
20:38 26.1 °C 12.9 °C 1014.8 hPa SE 14.8 km/h 14.8 km/h 44 % 0.0 mm 26.0 W/m2 BKN
20:43 25.9 °C 13.1 °C 1014.8 hPa SE 13.0 km/h 13.0 km/h 45 % 0.0 mm 21.0 W/m2 BKN
20:49 25.8 °C 12.9 °C 1015.1 hPa SE 9.7 km/h 9.7 km/h 45 % 0.0 mm 18.0 W/m2 BKN
20:54 25.7 °C 12.8 °C 1015.1 hPa SE 13.0 km/h 13.0 km/h 45 % 0.0 mm 14.0 W/m2 BKN
20:59 25.5 °C 13.1 °C 1015.1 hPa SE 8.0 km/h 8.0 km/h 46 % 0.0 mm 11.0 W/m2 BKN
21:04 25.3 °C 12.9 °C 1015.1 hPa SSE 6.4 km/h 6.4 km/h 46 % 0.0 mm 7.0 W/m2 BKN
21:09 25.2 °C 13.1 °C 1015.1 hPa SSE 7.4 km/h 7.4 km/h 47 % 0.0 mm 5.0 W/m2 BKN
21:14 24.9 °C 12.8 °C 1015.1 hPa SE 9.3 km/h 9.3 km/h 47 % 0.0 mm 0.0 W/m2 OVC
21:19 24.7 °C 13.9 °C 1015.1 hPa ENE 3.7 km/h 3.7 km/h 51 % 0.0 mm 0.0 W/m2 OVC
21:24 24.2 °C 14.3 °C 1015.1 hPa Calm     54 % 0.0 mm 0.0 W/m2 OVC
21:29 23.6 °C 14.3 °C 1015.5 hPa East 8.0 km/h 8.0 km/h 56 % 0.0 mm 0.0 W/m2 OVC
21:34 23.3 °C 14.3 °C 1015.5 hPa ESE 1.6 km/h   57 % 0.0 mm 0.0 W/m2 CLR
21:39 23.1 °C 14.4 °C 1015.5 hPa Calm     58 % 0.0 mm 0.0 W/m2 CLR
21:44 22.9 °C 14.4 °C 1015.5 hPa East 5.6 km/h   59 % 0.0 mm 0.0 W/m2 CLR
21:49 22.6 °C 14.7 °C 1015.5 hPa East 5.6 km/h 5.6 km/h 61 % 0.0 mm 0.0 W/m2 CLR
21:54 22.2 °C 14.8 °C 1015.8 hPa East 5.6 km/h   63 % 0.0 mm 0.0 W/m2 CLR
21:59 21.9 °C 14.8 °C 1015.8 hPa East 3.7 km/h   64 % 0.0 mm 0.0 W/m2 CLR
22:04 21.7 °C 14.8 °C 1015.8 hPa East 5.6 km/h 5.6 km/h 65 % 0.0 mm 0.0 W/m2 CLR
22:09 21.6 °C 14.7 °C 1016.1 hPa ESE 9.3 km/h 9.3 km/h 65 % 0.0 mm 0.0 W/m2 CLR
22:14 21.5 °C 14.9 °C 1016.1 hPa East 9.3 km/h 9.3 km/h 66 % 0.0 mm 0.0 W/m2 CLR
22:19 21.3 °C 14.9 °C 1016.1 hPa ESE 7.4 km/h   67 % 0.0 mm 0.0 W/m2 CLR
22:24 21.2 °C 15.0 °C 1016.5 hPa ESE 6.4 km/h 6.4 km/h 68 % 0.0 mm 0.0 W/m2 CLR
22:29 21.1 °C 15.2 °C 1016.5 hPa SE 11.1 km/h 11.1 km/h 69 % 0.0 mm 0.0 W/m2 CLR
22:34 20.9 °C 15.2 °C 1016.5 hPa ESE 9.3 km/h 9.3 km/h 70 % 0.0 mm 0.0 W/m2 CLR
22:39 20.8 °C 15.1 °C 1016.5 hPa Calm     70 % 0.0 mm 0.0 W/m2 CLR
22:44 20.7 °C 15.0 °C 1016.5 hPa ESE 5.6 km/h 5.6 km/h 70 % 0.0 mm 0.0 W/m2 CLR
22:49 20.6 °C 15.1 °C 1016.5 hPa ESE 11.1 km/h 11.1 km/h 71 % 0.0 mm 0.0 W/m2 CLR
22:54 20.5 °C 15.1 °C 1016.5 hPa ESE 5.6 km/h 5.6 km/h 71 % 0.0 mm 0.0 W/m2 CLR
23:04 20.4 °C 15.0 °C 1016.5 hPa ESE 7.4 km/h 7.4 km/h 71 % 0.0 mm 0.0 W/m2 CLR
23:09 20.4 °C 15.0 °C 1016.5 hPa ESE 6.4 km/h 6.4 km/h 71 % 0.0 mm 0.0 W/m2 CLR
23:14 20.4 °C 14.9 °C 1016.5 hPa ESE 1.6 km/h   71 % 0.0 mm 0.0 W/m2 CLR
23:19 20.4 °C 14.9 °C 1016.5 hPa Calm     71 % 0.0 mm 0.0 W/m2 CLR
23:24 20.3 °C 14.8 °C 1016.5 hPa Calm     71 % 0.0 mm 0.0 W/m2 CLR
23:29 20.1 °C 14.9 °C 1016.5 hPa Calm     72 % 0.0 mm 0.0 W/m2 CLR
23:34 19.9 °C 14.7 °C 1016.5 hPa Calm     72 % 0.0 mm 0.0 W/m2 CLR
23:39 19.8 °C 14.8 °C 1016.8 hPa Calm     73 % 0.0 mm 0.0 W/m2 CLR
23:44 19.7 °C 14.9 °C 1016.8 hPa Calm     74 % 0.0 mm 0.0 W/m2 CLR
23:49 19.7 °C 14.9 °C 1016.8 hPa Calm     74 % 0.0 mm 0.0 W/m2 CLR
23:54 19.6 °C 15.1 °C 1016.8 hPa Calm     75 % 0.0 mm 0.0 W/m2 CLR
23:59 19.6 °C 15.0 °C 1016.8 hPa Calm     75 % 0.0 mm 0.0 W/m2 CLR
Lo Temps de Massalio
Compliments of Weather Underground - 1.25 mb